Home   Weather   Bellinzona   Past weeks

Flag for Switzerland Past Weather in Bellinzona, Ticino, Switzerland — Yesterday and Last 2 Weeks

Now
63 °F

Mild.


Feels Like: 63 °F
Forecast: 62 / 80 °F
Wind: 6 mph from East

Location: Locarno-Magadino

Current Time: May 26, 2017 at 7:38:09 am

Latest Report: May 26, 2017 at 7:00 am


Visibility: N/A

Pressure: 30.09 "Hg

Humidity: 64%

Dew Point: 51 °F

Location of BellinzonaLocation

Past Weather in Bellinzona — Graph

°F

Bellinzona Temperature Yesterday

Maximum temperature yesterday: 79 °F (at 4:00 pm)
Minimum temperature yesterday: 56 °F (at 5:00 am)
Average temperature yesterday: 70 °F

High & Low Weather Summary for the Past Weeks

 TemperatureHumidityPressure
High87 °F (May 24, 5:00 pm)98% (May 20, 6:00 am)30.40 "Hg (May 20, 6:00 am)
Low46 °F (May 20, 6:00 am)18% (May 24, 8:00 pm)29.72 "Hg (May 11, 9:00 pm)
Average64 °F68%30.04 "Hg
* Reported May 11 6:00 am — May 26 6:00 am, Bellinzona. Weather by CustomWeather, © 2017

Note: Actual official high and low records may vary slightly from our data, if they occured in-between our weather recording intervals... More about our weather records

Advertising

Bellinzona Weather History for the Previous 24 Hours

Scroll right to see more
 ConditionsComfort  
Time TempWeatherWind HumidityBarometerVisibility
6:00 am
Fri, May 26
63 °FMild.3 mph70%30.09 "HgN/A
5:00 am63 °FMild.2 mph76%30.08 "HgN/A
4:00 am62 °FCool.1 mph91%30.07 "HgN/A
3:00 am62 °FCool.2 mph89%30.06 "HgN/A
2:00 am61 °FCool.1 mph93%30.07 "HgN/A
1:00 am61 °FCool.1 mph91%30.06 "HgN/A
12:00 am62 °FMild.1 mph87%30.05 "HgN/A
11:00 pm
Thu, May 25
65 °FMild.1 mph79%30.02 "HgN/A
10:00 pm67 °FMild.3 mph72%30.00 "HgN/A
9:00 pm69 °FMild.3 mph69%29.97 "HgN/A
8:00 pm76 °FMild.7 mph50%29.94 "HgN/A
7:00 pm76 °FMild.7 mph55%29.93 "HgN/A
6:00 pm78 °FWarm.7 mph54%29.93 "HgN/A
5:00 pm78 °FWarm.7 mph53%29.94 "HgN/A
4:00 pm79 °FWarm.9 mph51%29.95 "HgN/A
3:00 pm78 °FWarm.9 mph49%29.98 "HgN/A
2:00 pm77 °FWarm.9 mph52%30.00 "HgN/A
1:00 pm77 °FMild.9 mph53%30.01 "HgN/A
12:00 pm75 °FMild.9 mph54%30.02 "HgN/A
11:00 am74 °FMild.8 mph60%30.03 "HgN/A
10:00 am74 °FMild.9 mph47%30.02 "HgN/A
9:00 am74 °FMild.14 mph35%30.01 "HgN/A
8:00 am70 °FMild.8 mph48%30.01 "HgN/A
7:00 am69 °FMild.2 mph43%30.00 "HgN/A
Weather by CustomWeather, © 2017

See weather overviewHow to use our weather pages